Time,TemperatureF,DewpointF,PressureIn,WindDirection,WindDirectionDegrees,WindSpeedMPH,WindSpeedGustMPH,Humidity,HourlyPrecipIn,Conditions,Clouds,dailyrainin,SoftwareType,DateUTC
2013-05-18 00:00:00,70.2,63.4,30.06,N/A,-737280,0.0,-999.0,79,0.00,,,0.05,Wunderground v.1.15,2013-05-18 04:00:00,
2013-05-18 00:05:00,70.2,63.4,30.06,N/A,-737280,0.0,-999.0,79,0.00,,,0.05,Wunderground v.1.15,2013-05-18 04:05:00,
2013-05-18 00:10:00,70.2,63.4,30.06,N/A,-737280,0.0,-999.0,79,0.00,,,0.05,Wunderground v.1.15,2013-05-18 04:10:00,
2013-05-18 00:15:00,70.2,63.4,30.06,N/A,-737280,0.0,-999.0,79,0.00,,,0.05,Wunderground v.1.15,2013-05-18 04:15:00,
2013-05-18 00:20:00,70.2,63.4,30.06,N/A,-737280,0.0,-999.0,79,0.00,,,0.05,Wunderground v.1.15,2013-05-18 04:20:00,
2013-05-18 00:25:00,70.2,63.4,30.06,N/A,-737280,0.0,-999.0,79,0.00,,,0.05,Wunderground v.1.15,2013-05-18 04:25:00,
2013-05-18 00:30:00,70.2,63.4,30.06,N/A,-737280,0.0,-999.0,79,0.00,,,0.05,Wunderground v.1.15,2013-05-18 04:30:00,
2013-05-18 00:35:00,70.2,63.4,30.06,N/A,-737280,0.0,-999.0,79,0.00,,,0.05,Wunderground v.1.15,2013-05-18 04:35:00,
2013-05-18 00:40:00,70.2,63.4,30.06,N/A,-737280,0.0,-999.0,79,0.00,,,0.05,Wunderground v.1.15,2013-05-18 04:40:00,
2013-05-18 00:45:00,69.5,63.4,30.05,N/A,-737280,0.0,-999.0,81,0.00,,,0.05,Wunderground v.1.15,2013-05-18 04:45:00,
2013-05-18 00:50:00,69.5,63.4,30.05,N/A,-737280,0.0,-999.0,81,0.00,,,0.05,Wunderground v.1.15,2013-05-18 04:50:00,
2013-05-18 00:55:00,69.5,63.4,30.05,N/A,-737280,0.0,-999.0,81,0.00,,,0.05,Wunderground v.1.15,2013-05-18 04:55:00,
2013-05-18 01:00:00,69.5,63.4,30.05,N/A,-737280,0.0,-999.0,81,0.00,,,0.05,Wunderground v.1.15,2013-05-18 05:00:00,
2013-05-18 01:05:00,69.5,63.4,30.05,N/A,-737280,0.0,-999.0,81,0.00,,,0.05,Wunderground v.1.15,2013-05-18 05:05:00,
2013-05-18 01:10:00,69.5,63.4,30.05,N/A,-737280,0.0,-999.0,81,0.00,,,0.05,Wunderground v.1.15,2013-05-18 05:10:00,
2013-05-18 01:15:00,69.1,63.7,30.05,N/A,-737280,0.0,-999.0,83,0.00,,,0.05,Wunderground v.1.15,2013-05-18 05:15:00,
2013-05-18 01:20:00,69.1,63.7,30.05,N/A,-737280,0.0,-999.0,83,0.00,,,0.05,Wunderground v.1.15,2013-05-18 05:20:00,
2013-05-18 01:25:00,69.1,63.7,30.05,N/A,-737280,0.0,-999.0,83,0.00,,,0.05,Wunderground v.1.15,2013-05-18 05:25:00,
2013-05-18 01:30:00,69.1,63.7,30.05,N/A,-737280,0.0,-999.0,83,0.00,,,0.05,Wunderground v.1.15,2013-05-18 05:30:00,
2013-05-18 01:35:00,69.1,63.7,30.05,N/A,-737280,0.0,-999.0,83,0.00,,,0.05,Wunderground v.1.15,2013-05-18 05:35:00,
2013-05-18 01:40:00,69.1,63.7,30.05,N/A,-737280,0.0,-999.0,83,0.00,,,0.05,Wunderground v.1.15,2013-05-18 05:40:00,
2013-05-18 01:45:00,69.4,64.0,30.05,N/A,-737280,0.0,-999.0,83,0.00,,,0.05,Wunderground v.1.15,2013-05-18 05:45:00,
2013-05-18 01:50:00,69.4,64.0,30.05,N/A,-737280,0.0,-999.0,83,0.00,,,0.05,Wunderground v.1.15,2013-05-18 05:50:00,
2013-05-18 01:55:00,69.4,64.0,30.05,N/A,-737280,0.0,-999.0,83,0.00,,,0.05,Wunderground v.1.15,2013-05-18 05:55:00,
2013-05-18 02:00:00,69.4,64.0,30.05,N/A,-737280,0.0,-999.0,83,0.00,,,0.05,Wunderground v.1.15,2013-05-18 06:00:00,
2013-05-18 02:05:00,69.4,64.0,30.05,N/A,-737280,0.0,-999.0,83,0.00,,,0.05,Wunderground v.1.15,2013-05-18 06:05:00,
2013-05-18 02:10:00,69.4,64.0,30.05,N/A,-737280,0.0,-999.0,83,0.00,,,0.05,Wunderground v.1.15,2013-05-18 06:10:00,
2013-05-18 02:15:00,69.3,63.9,30.04,N/A,-737280,0.0,-999.0,83,0.00,,,0.05,Wunderground v.1.15,2013-05-18 06:15:00,
2013-05-18 02:20:00,69.3,63.9,30.04,N/A,-737280,0.0,-999.0,83,0.00,,,0.05,Wunderground v.1.15,2013-05-18 06:20:00,
2013-05-18 02:25:00,69.3,63.9,30.04,N/A,-737280,0.0,-999.0,83,0.00,,,0.05,Wunderground v.1.15,2013-05-18 06:25:00,
2013-05-18 02:30:00,69.3,63.9,30.04,N/A,-737280,0.0,-999.0,83,0.00,,,0.05,Wunderground v.1.15,2013-05-18 06:30:00,
2013-05-18 02:35:00,69.3,63.9,30.04,N/A,-737280,0.0,-999.0,83,0.00,,,0.05,Wunderground v.1.15,2013-05-18 06:35:00,
2013-05-18 02:40:00,69.3,63.9,30.04,N/A,-737280,0.0,-999.0,83,0.00,,,0.05,Wunderground v.1.15,2013-05-18 06:40:00,
2013-05-18 02:45:00,68.7,64.0,30.04,N/A,-737280,0.0,-999.0,85,0.00,,,0.05,Wunderground v.1.15,2013-05-18 06:45:00,
2013-05-18 02:50:00,68.7,64.0,30.04,N/A,-737280,0.0,-999.0,85,0.00,,,0.05,Wunderground v.1.15,2013-05-18 06:50:00,
2013-05-18 02:55:00,68.7,64.0,30.04,N/A,-737280,0.0,-999.0,85,0.00,,,0.05,Wunderground v.1.15,2013-05-18 06:55:00,
2013-05-18 03:00:00,68.7,64.0,30.04,N/A,-737280,0.0,-999.0,85,0.00,,,0.05,Wunderground v.1.15,2013-05-18 07:00:00,
2013-05-18 03:05:00,68.7,64.0,30.04,N/A,-737280,0.0,-999.0,85,0.00,,,0.05,Wunderground v.1.15,2013-05-18 07:05:00,
2013-05-18 03:10:00,68.7,64.0,30.04,N/A,-737280,0.0,-999.0,85,0.00,,,0.05,Wunderground v.1.15,2013-05-18 07:10:00,
2013-05-18 03:15:00,68.3,64.3,30.03,N/A,-737280,0.0,-999.0,87,0.00,,,0.05,Wunderground v.1.15,2013-05-18 07:15:00,
2013-05-18 03:20:00,68.3,64.3,30.03,N/A,-737280,0.0,-999.0,87,0.00,,,0.05,Wunderground v.1.15,2013-05-18 07:20:00,
2013-05-18 03:25:00,68.3,64.3,30.03,N/A,-737280,0.0,-999.0,87,0.00,,,0.05,Wunderground v.1.15,2013-05-18 07:25:00,
2013-05-18 03:30:00,68.3,64.3,30.03,N/A,-737280,0.0,-999.0,87,0.00,,,0.05,Wunderground v.1.15,2013-05-18 07:30:00,
2013-05-18 03:35:00,68.3,64.3,30.03,N/A,-737280,0.0,-999.0,87,0.00,,,0.05,Wunderground v.1.15,2013-05-18 07:35:00,
2013-05-18 03:40:00,68.3,64.3,30.03,N/A,-737280,0.0,-999.0,87,0.00,,,0.05,Wunderground v.1.15,2013-05-18 07:40:00,
2013-05-18 03:45:00,68.3,64.6,30.04,N/A,-737280,0.0,-999.0,88,0.00,,,0.05,Wunderground v.1.15,2013-05-18 07:45:00,
2013-05-18 03:50:00,68.3,64.6,30.04,N/A,-737280,0.0,-999.0,88,0.00,,,0.05,Wunderground v.1.15,2013-05-18 07:50:00,
2013-05-18 03:55:00,68.3,64.6,30.04,N/A,-737280,0.0,-999.0,88,0.00,,,0.05,Wunderground v.1.15,2013-05-18 07:55:00,
2013-05-18 04:00:00,68.3,64.6,30.04,N/A,-737280,0.0,-999.0,88,0.00,,,0.05,Wunderground v.1.15,2013-05-18 08:00:00,
2013-05-18 04:05:00,68.3,64.6,30.04,N/A,-737280,0.0,-999.0,88,0.00,,,0.05,Wunderground v.1.15,2013-05-18 08:05:00,
2013-05-18 04:10:00,68.3,64.6,30.04,N/A,-737280,0.0,-999.0,88,0.00,,,0.05,Wunderground v.1.15,2013-05-18 08:10:00,
2013-05-18 04:15:00,68.6,64.6,30.05,N/A,-737280,0.0,-999.0,87,0.00,,,0.05,Wunderground v.1.15,2013-05-18 08:15:00,
2013-05-18 04:20:00,68.6,64.6,30.05,N/A,-737280,0.0,-999.0,87,0.00,,,0.05,Wunderground v.1.15,2013-05-18 08:20:00,
2013-05-18 04:25:00,68.6,64.6,30.05,N/A,-737280,0.0,-999.0,87,0.00,,,0.05,Wunderground v.1.15,2013-05-18 08:25:00,
2013-05-18 04:30:00,68.6,64.6,30.05,N/A,-737280,0.0,-999.0,87,0.00,,,0.05,Wunderground v.1.15,2013-05-18 08:30:00,
2013-05-18 04:35:00,68.6,64.6,30.05,N/A,-737280,0.0,-999.0,87,0.00,,,0.05,Wunderground v.1.15,2013-05-18 08:35:00,
2013-05-18 04:40:00,68.6,64.6,30.05,N/A,-737280,0.0,-999.0,87,0.00,,,0.05,Wunderground v.1.15,2013-05-18 08:40:00,
2013-05-18 04:45:00,68.2,64.2,30.05,SW,225,0.0,-999.0,87,0.00,,,0.05,Wunderground v.1.15,2013-05-18 08:45:00,
2013-05-18 04:50:00,68.2,64.2,30.05,SW,225,0.0,-999.0,87,0.00,,,0.05,Wunderground v.1.15,2013-05-18 08:50:00,
2013-05-18 04:55:00,68.2,64.2,30.05,SW,225,0.0,-999.0,87,0.00,,,0.05,Wunderground v.1.15,2013-05-18 08:55:00,
2013-05-18 05:00:00,68.2,64.2,30.05,SW,225,0.0,-999.0,87,0.00,,,0.05,Wunderground v.1.15,2013-05-18 09:00:00,
2013-05-18 05:05:00,68.2,64.2,30.05,SW,225,0.0,-999.0,87,0.00,,,0.05,Wunderground v.1.15,2013-05-18 09:05:00,
2013-05-18 05:10:00,68.2,64.2,30.05,SW,225,0.0,-999.0,87,0.00,,,0.05,Wunderground v.1.15,2013-05-18 09:10:00,
2013-05-18 05:15:00,67.6,63.9,30.05,N/A,-737280,0.0,-999.0,88,0.00,,,0.05,Wunderground v.1.15,2013-05-18 09:15:00,
2013-05-18 05:20:00,67.6,63.9,30.05,N/A,-737280,0.0,-999.0,88,0.00,,,0.05,Wunderground v.1.15,2013-05-18 09:20:00,
2013-05-18 05:25:00,67.6,63.9,30.05,N/A,-737280,0.0,-999.0,88,0.00,,,0.05,Wunderground v.1.15,2013-05-18 09:25:00,
2013-05-18 05:30:00,67.6,63.9,30.05,N/A,-737280,0.0,-999.0,88,0.00,,,0.05,Wunderground v.1.15,2013-05-18 09:30:00,
2013-05-18 05:35:00,67.6,63.9,30.05,N/A,-737280,0.0,-999.0,88,0.00,,,0.05,Wunderground v.1.15,2013-05-18 09:35:00,
2013-05-18 05:40:00,67.6,63.9,30.05,N/A,-737280,0.0,-999.0,88,0.00,,,0.05,Wunderground v.1.15,2013-05-18 09:40:00,
2013-05-18 05:45:00,67.4,63.7,30.06,N/A,-737280,0.0,-999.0,88,0.00,,,0.05,Wunderground v.1.15,2013-05-18 09:45:00,
2013-05-18 05:50:00,67.4,63.7,30.06,N/A,-737280,0.0,-999.0,88,0.00,,,0.05,Wunderground v.1.15,2013-05-18 09:50:00,
2013-05-18 05:55:00,67.4,63.7,30.06,N/A,-737280,0.0,-999.0,88,0.00,,,0.05,Wunderground v.1.15,2013-05-18 09:55:00,
2013-05-18 06:00:00,67.4,63.7,30.06,N/A,-737280,0.0,-999.0,88,0.00,,,0.05,Wunderground v.1.15,2013-05-18 10:00:00,
2013-05-18 06:05:00,67.4,63.7,30.06,N/A,-737280,0.0,-999.0,88,0.00,,,0.05,Wunderground v.1.15,2013-05-18 10:05:00,
2013-05-18 06:10:00,67.4,63.7,30.06,N/A,-737280,0.0,-999.0,88,0.00,,,0.05,Wunderground v.1.15,2013-05-18 10:10:00,
2013-05-18 06:15:00,66.7,63.4,30.07,N/A,-737280,0.0,-999.0,89,0.00,,,0.05,Wunderground v.1.15,2013-05-18 10:15:00,
2013-05-18 06:20:00,66.7,63.4,30.07,N/A,-737280,0.0,-999.0,89,0.00,,,0.05,Wunderground v.1.15,2013-05-18 10:20:00,
2013-05-18 06:25:00,66.7,63.4,30.07,N/A,-737280,0.0,-999.0,89,0.00,,,0.05,Wunderground v.1.15,2013-05-18 10:25:00,
2013-05-18 06:30:00,66.7,63.4,30.07,N/A,-737280,0.0,-999.0,89,0.00,,,0.05,Wunderground v.1.15,2013-05-18 10:30:00,
2013-05-18 06:35:00,66.7,63.4,30.07,N/A,-737280,0.0,-999.0,89,0.00,,,0.05,Wunderground v.1.15,2013-05-18 10:35:00,
2013-05-18 06:40:00,66.7,63.4,30.07,N/A,-737280,0.0,-999.0,89,0.00,,,0.05,Wunderground v.1.15,2013-05-18 10:40:00,
2013-05-18 06:45:00,66.3,63.3,30.08,N/A,-737280,0.0,-999.0,90,0.00,,,0.05,Wunderground v.1.15,2013-05-18 10:45:00,
2013-05-18 06:50:00,66.3,63.3,30.08,N/A,-737280,0.0,-999.0,90,0.00,,,0.05,Wunderground v.1.15,2013-05-18 10:50:00,
2013-05-18 06:55:00,66.3,63.3,30.08,N/A,-737280,0.0,-999.0,90,0.00,,,0.05,Wunderground v.1.15,2013-05-18 10:55:00,
2013-05-18 07:00:00,66.3,63.3,30.08,N/A,-737280,0.0,-999.0,90,0.00,,,0.05,Wunderground v.1.15,2013-05-18 11:00:00,
2013-05-18 07:05:00,66.3,63.3,30.08,N/A,-737280,0.0,-999.0,90,0.00,,,0.05,Wunderground v.1.15,2013-05-18 11:05:00,
2013-05-18 07:10:00,66.3,63.3,30.08,N/A,-737280,0.0,-999.0,90,0.00,,,0.05,Wunderground v.1.15,2013-05-18 11:10:00,
2013-05-18 07:15:00,67.7,65.0,30.08,N/A,-737280,0.0,-999.0,91,0.00,,,0.05,Wunderground v.1.15,2013-05-18 11:15:00,
2013-05-18 07:20:00,67.7,65.0,30.08,N/A,-737280,0.0,-999.0,91,0.00,,,0.05,Wunderground v.1.15,2013-05-18 11:20:00,
2013-05-18 07:25:00,67.7,65.0,30.08,N/A,-737280,0.0,-999.0,91,0.00,,,0.05,Wunderground v.1.15,2013-05-18 11:25:00,
2013-05-18 07:30:00,67.7,65.0,30.08,N/A,-737280,0.0,-999.0,91,0.00,,,0.05,Wunderground v.1.15,2013-05-18 11:30:00,
2013-05-18 07:35:00,67.7,65.0,30.08,N/A,-737280,0.0,-999.0,91,0.00,,,0.05,Wunderground v.1.15,2013-05-18 11:35:00,
2013-05-18 07:40:00,67.7,65.0,30.08,N/A,-737280,0.0,-999.0,91,0.00,,,0.05,Wunderground v.1.15,2013-05-18 11:40:00,
2013-05-18 07:45:00,70.1,64.7,30.09,West,270,0.0,-999.0,83,0.00,,,0.05,Wunderground v.1.15,2013-05-18 11:45:00,
2013-05-18 07:50:00,70.1,64.7,30.09,West,270,0.0,-999.0,83,0.00,,,0.05,Wunderground v.1.15,2013-05-18 11:50:00,
2013-05-18 07:55:00,70.1,64.7,30.09,West,270,0.0,-999.0,83,0.00,,,0.05,Wunderground v.1.15,2013-05-18 11:55:00,
2013-05-18 08:00:00,70.1,64.7,30.09,West,270,0.0,-999.0,83,0.00,,,0.05,Wunderground v.1.15,2013-05-18 12:00:00,
2013-05-18 08:05:00,70.1,64.7,30.09,West,270,0.0,-999.0,83,0.00,,,0.05,Wunderground v.1.15,2013-05-18 12:05:00,
2013-05-18 08:10:00,70.1,64.7,30.09,West,270,0.0,-999.0,83,0.00,,,0.05,Wunderground v.1.15,2013-05-18 12:10:00,
2013-05-18 08:15:00,70.6,64.1,30.10,West,270,1.0,-999.0,80,0.00,,,0.05,Wunderground v.1.15,2013-05-18 12:15:00,
2013-05-18 08:20:00,70.6,64.1,30.10,West,270,1.0,-999.0,80,0.00,,,0.05,Wunderground v.1.15,2013-05-18 12:20:00,
2013-05-18 08:25:00,70.6,64.1,30.10,West,270,1.0,-999.0,80,0.00,,,0.05,Wunderground v.1.15,2013-05-18 12:25:00,
2013-05-18 08:30:00,70.6,64.1,30.10,West,270,1.0,-999.0,80,0.00,,,0.05,Wunderground v.1.15,2013-05-18 12:30:00,
2013-05-18 08:35:00,70.6,64.1,30.10,West,270,1.0,-999.0,80,0.00,,,0.05,Wunderground v.1.15,2013-05-18 12:35:00,
2013-05-18 08:40:00,70.6,64.1,30.10,West,270,1.0,-999.0,80,0.00,,,0.05,Wunderground v.1.15,2013-05-18 12:40:00,
2013-05-18 08:45:00,70.5,62.9,30.10,West,270,1.0,-999.0,77,0.00,,,0.05,Wunderground v.1.15,2013-05-18 12:45:00,
2013-05-18 08:50:00,70.5,62.9,30.10,West,270,1.0,-999.0,77,0.00,,,0.05,Wunderground v.1.15,2013-05-18 12:50:00,
2013-05-18 08:55:00,70.5,62.9,30.10,West,270,1.0,-999.0,77,0.00,,,0.05,Wunderground v.1.15,2013-05-18 12:55:00,
2013-05-18 09:00:00,70.5,62.9,30.10,West,270,1.0,-999.0,77,0.00,,,0.05,Wunderground v.1.15,2013-05-18 13:00:00,
2013-05-18 09:05:00,70.5,62.9,30.10,West,270,1.0,-999.0,77,0.00,,,0.05,Wunderground v.1.15,2013-05-18 13:05:00,
2013-05-18 09:10:00,70.5,62.9,30.10,West,270,1.0,-999.0,77,0.00,,,0.05,Wunderground v.1.15,2013-05-18 13:10:00,
2013-05-18 09:15:00,70.5,62.6,30.11,WSW,248,1.0,-999.0,76,0.00,,,0.05,Wunderground v.1.15,2013-05-18 13:15:00,
2013-05-18 09:20:00,70.5,62.6,30.11,WSW,248,1.0,-999.0,76,0.00,,,0.05,Wunderground v.1.15,2013-05-18 13:20:00,
2013-05-18 09:25:00,70.5,62.6,30.11,WSW,248,1.0,-999.0,76,0.00,,,0.05,Wunderground v.1.15,2013-05-18 13:25:00,
2013-05-18 09:30:00,70.5,62.6,30.11,WSW,248,1.0,-999.0,76,0.00,,,0.05,Wunderground v.1.15,2013-05-18 13:30:00,
2013-05-18 09:35:00,70.5,62.6,30.11,WSW,248,1.0,-999.0,76,0.00,,,0.05,Wunderground v.1.15,2013-05-18 13:35:00,
2013-05-18 09:40:00,70.5,62.6,30.11,WSW,248,1.0,-999.0,76,0.00,,,0.05,Wunderground v.1.15,2013-05-18 13:40:00,
2013-05-18 09:45:00,69.4,64.4,30.12,West,270,1.0,-999.0,84,0.04,,,0.05,Wunderground v.1.15,2013-05-18 13:45:00,
2013-05-18 09:50:00,69.4,64.4,30.12,West,270,1.0,-999.0,84,0.04,,,0.05,Wunderground v.1.15,2013-05-18 13:50:00,
2013-05-18 09:55:00,69.4,64.4,30.12,West,270,1.0,-999.0,84,0.04,,,0.05,Wunderground v.1.15,2013-05-18 13:55:00,
2013-05-18 10:00:00,69.4,64.4,30.12,West,270,1.0,-999.0,84,0.04,,,0.05,Wunderground v.1.15,2013-05-18 14:00:00,
2013-05-18 10:05:00,69.4,64.4,30.12,West,270,1.0,-999.0,84,0.04,,,0.05,Wunderground v.1.15,2013-05-18 14:05:00,
2013-05-18 10:10:00,69.4,64.4,30.12,West,270,1.0,-999.0,84,0.04,,,0.05,Wunderground v.1.15,2013-05-18 14:10:00,
2013-05-18 10:15:00,68.6,64.2,30.12,West,270,1.0,-999.0,86,0.04,,,0.05,Wunderground v.1.15,2013-05-18 14:15:00,
2013-05-18 10:20:00,68.6,64.2,30.12,West,270,1.0,-999.0,86,0.04,,,0.05,Wunderground v.1.15,2013-05-18 14:20:00,
2013-05-18 10:25:00,68.6,64.2,30.12,West,270,1.0,-999.0,86,0.04,,,0.05,Wunderground v.1.15,2013-05-18 14:25:00,
2013-05-18 10:30:00,68.6,64.2,30.12,West,270,1.0,-999.0,86,0.04,,,0.05,Wunderground v.1.15,2013-05-18 14:30:00,
2013-05-18 10:35:00,68.6,64.2,30.12,West,270,1.0,-999.0,86,0.04,,,0.05,Wunderground v.1.15,2013-05-18 14:35:00,
2013-05-18 10:40:00,68.6,64.2,30.12,West,270,1.0,-999.0,86,0.04,,,0.05,Wunderground v.1.15,2013-05-18 14:40:00,
2013-05-18 10:45:00,68.1,63.4,30.12,WSW,248,2.0,-999.0,85,0.00,,,0.05,Wunderground v.1.15,2013-05-18 14:45:00,
2013-05-18 10:50:00,68.1,63.4,30.12,WSW,248,2.0,-999.0,85,0.00,,,0.05,Wunderground v.1.15,2013-05-18 14:50:00,
2013-05-18 10:55:00,68.1,63.4,30.12,WSW,248,2.0,-999.0,85,0.00,,,0.05,Wunderground v.1.15,2013-05-18 14:55:00,
2013-05-18 11:00:00,68.1,63.4,30.12,WSW,248,2.0,-999.0,85,0.00,,,0.05,Wunderground v.1.15,2013-05-18 15:00:00,
2013-05-18 11:05:00,68.1,63.4,30.12,WSW,248,2.0,-999.0,85,0.00,,,0.05,Wunderground v.1.15,2013-05-18 15:05:00,
2013-05-18 11:10:00,68.1,63.4,30.12,WSW,248,2.0,-999.0,85,0.00,,,0.05,Wunderground v.1.15,2013-05-18 15:10:00,
2013-05-18 11:15:00,68.3,64.6,30.12,WSW,248,1.0,-999.0,88,0.00,,,0.05,Wunderground v.1.15,2013-05-18 15:15:00,
2013-05-18 11:20:00,68.3,64.6,30.12,WSW,248,1.0,-999.0,88,0.00,,,0.05,Wunderground v.1.15,2013-05-18 15:20:00,
2013-05-18 11:25:00,68.3,64.6,30.12,WSW,248,1.0,-999.0,88,0.00,,,0.05,Wunderground v.1.15,2013-05-18 15:25:00,
2013-05-18 11:30:00,68.3,64.6,30.12,WSW,248,1.0,-999.0,88,0.00,,,0.05,Wunderground v.1.15,2013-05-18 15:30:00,
2013-05-18 11:35:00,68.3,64.6,30.12,WSW,248,1.0,-999.0,88,0.00,,,0.05,Wunderground v.1.15,2013-05-18 15:35:00,
2013-05-18 11:40:00,68.3,64.6,30.12,WSW,248,1.0,-999.0,88,0.00,,,0.05,Wunderground v.1.15,2013-05-18 15:40:00,
2013-05-18 11:45:00,69.2,64.8,30.12,WSW,248,0.0,-999.0,86,0.00,,,0.05,Wunderground v.1.15,2013-05-18 15:45:00,
2013-05-18 11:50:00,69.2,64.8,30.12,WSW,248,0.0,-999.0,86,0.00,,,0.05,Wunderground v.1.15,2013-05-18 15:50:00,
2013-05-18 11:55:00,69.2,64.8,30.12,WSW,248,0.0,-999.0,86,0.00,,,0.05,Wunderground v.1.15,2013-05-18 15:55:00,
2013-05-18 12:00:00,69.2,64.8,30.12,WSW,248,0.0,-999.0,86,0.00,,,0.05,Wunderground v.1.15,2013-05-18 16:00:00,
2013-05-18 12:05:00,69.2,64.8,30.12,WSW,248,0.0,-999.0,86,0.00,,,0.05,Wunderground v.1.15,2013-05-18 16:05:00,
2013-05-18 12:10:00,69.2,64.8,30.12,WSW,248,0.0,-999.0,86,0.00,,,0.05,Wunderground v.1.15,2013-05-18 16:10:00,
2013-05-18 12:15:00,69.4,65.0,30.11,WSW,248,0.0,-999.0,86,0.00,,,0.05,Wunderground v.1.15,2013-05-18 16:15:00,
2013-05-18 12:20:00,69.4,65.0,30.11,WSW,248,0.0,-999.0,86,0.00,,,0.05,Wunderground v.1.15,2013-05-18 16:20:00,
2013-05-18 12:25:00,69.4,65.0,30.11,WSW,248,0.0,-999.0,86,0.00,,,0.05,Wunderground v.1.15,2013-05-18 16:25:00,
2013-05-18 12:30:00,69.4,65.0,30.11,WSW,248,0.0,-999.0,86,0.00,,,0.05,Wunderground v.1.15,2013-05-18 16:30:00,
2013-05-18 12:35:00,69.4,65.0,30.11,WSW,248,0.0,-999.0,86,0.00,,,0.05,Wunderground v.1.15,2013-05-18 16:35:00,
2013-05-18 12:40:00,69.4,65.0,30.11,WSW,248,0.0,-999.0,86,0.00,,,0.05,Wunderground v.1.15,2013-05-18 16:40:00,
2013-05-18 12:45:00,70.3,65.6,30.11,NE,45,0.0,-999.0,85,0.00,,,0.05,Wunderground v.1.15,2013-05-18 16:45:00,
2013-05-18 12:50:00,70.3,65.6,30.11,NE,45,0.0,-999.0,85,0.00,,,0.05,Wunderground v.1.15,2013-05-18 16:50:00,
2013-05-18 12:55:00,70.3,65.6,30.11,NE,45,0.0,-999.0,85,0.00,,,0.05,Wunderground v.1.15,2013-05-18 16:55:00,
2013-05-18 13:00:00,70.3,65.6,30.11,NE,45,0.0,-999.0,85,0.00,,,0.05,Wunderground v.1.15,2013-05-18 17:00:00,
2013-05-18 13:05:00,70.3,65.6,30.11,NE,45,0.0,-999.0,85,0.00,,,0.05,Wunderground v.1.15,2013-05-18 17:05:00,
2013-05-18 13:10:00,70.3,65.6,30.11,NE,45,0.0,-999.0,85,0.00,,,0.05,Wunderground v.1.15,2013-05-18 17:10:00,
2013-05-18 13:15:00,70.9,65.1,30.11,ESE,113,0.0,-999.0,82,0.00,,,0.05,Wunderground v.1.15,2013-05-18 17:15:00,
2013-05-18 13:20:00,70.9,65.1,30.11,ESE,113,0.0,-999.0,82,0.00,,,0.05,Wunderground v.1.15,2013-05-18 17:20:00,
2013-05-18 13:25:00,70.9,65.1,30.11,ESE,113,0.0,-999.0,82,0.00,,,0.05,Wunderground v.1.15,2013-05-18 17:25:00,
2013-05-18 13:30:00,70.9,65.1,30.11,ESE,113,0.0,-999.0,82,0.00,,,0.05,Wunderground v.1.15,2013-05-18 17:30:00,
2013-05-18 13:35:00,70.9,65.1,30.11,ESE,113,0.0,-999.0,82,0.00,,,0.05,Wunderground v.1.15,2013-05-18 17:35:00,
2013-05-18 13:40:00,70.9,65.1,30.11,ESE,113,0.0,-999.0,82,0.00,,,0.05,Wunderground v.1.15,2013-05-18 17:40:00,
2013-05-18 13:45:00,71.8,65.7,30.10,ESE,113,0.0,-999.0,81,0.00,,,0.05,Wunderground v.1.15,2013-05-18 17:45:00,
2013-05-18 13:50:00,71.8,65.7,30.10,ESE,113,0.0,-999.0,81,0.00,,,0.05,Wunderground v.1.15,2013-05-18 17:50:00,
2013-05-18 13:55:00,71.8,65.7,30.10,ESE,113,0.0,-999.0,81,0.00,,,0.05,Wunderground v.1.15,2013-05-18 17:55:00,
2013-05-18 14:00:00,71.8,65.7,30.10,ESE,113,0.0,-999.0,81,0.00,,,0.05,Wunderground v.1.15,2013-05-18 18:00:00,
2013-05-18 14:05:00,71.8,65.7,30.10,ESE,113,0.0,-999.0,81,0.00,,,0.05,Wunderground v.1.15,2013-05-18 18:05:00,
2013-05-18 14:10:00,71.8,65.7,30.10,ESE,113,0.0,-999.0,81,0.00,,,0.05,Wunderground v.1.15,2013-05-18 18:10:00,
2013-05-18 14:15:00,71.2,65.4,30.10,West,270,0.0,-999.0,82,0.00,,,0.05,Wunderground v.1.15,2013-05-18 18:15:00,
2013-05-18 14:20:00,71.2,65.4,30.10,West,270,0.0,-999.0,82,0.00,,,0.05,Wunderground v.1.15,2013-05-18 18:20:00,
2013-05-18 14:25:00,71.2,65.4,30.10,West,270,0.0,-999.0,82,0.00,,,0.05,Wunderground v.1.15,2013-05-18 18:25:00,
2013-05-18 14:30:00,71.2,65.4,30.10,West,270,0.0,-999.0,82,0.00,,,0.05,Wunderground v.1.15,2013-05-18 18:30:00,
2013-05-18 14:35:00,71.2,65.4,30.10,West,270,0.0,-999.0,82,0.00,,,0.05,Wunderground v.1.15,2013-05-18 18:35:00,
2013-05-18 14:40:00,71.2,65.4,30.10,West,270,0.0,-999.0,82,0.00,,,0.05,Wunderground v.1.15,2013-05-18 18:40:00,
2013-05-18 14:45:00,71.2,65.8,30.09,ENE,68,0.0,-999.0,83,0.00,,,0.05,Wunderground v.1.15,2013-05-18 18:45:00,
2013-05-18 14:50:00,71.2,65.8,30.09,ENE,68,0.0,-999.0,83,0.00,,,0.05,Wunderground v.1.15,2013-05-18 18:50:00,
2013-05-18 14:55:00,71.2,65.8,30.09,ENE,68,0.0,-999.0,83,0.00,,,0.05,Wunderground v.1.15,2013-05-18 18:55:00,
2013-05-18 15:00:00,71.2,65.8,30.09,ENE,68,0.0,-999.0,83,0.00,,,0.05,Wunderground v.1.15,2013-05-18 19:00:00,
2013-05-18 15:05:00,71.2,65.8,30.09,ENE,68,0.0,-999.0,83,0.00,,,0.05,Wunderground v.1.15,2013-05-18 19:05:00,
2013-05-18 15:10:00,71.2,65.8,30.09,ENE,68,0.0,-999.0,83,0.00,,,0.05,Wunderground v.1.15,2013-05-18 19:10:00,
2013-05-18 15:15:00,71.3,65.9,30.08,ENE,68,0.0,-999.0,83,0.00,,,0.05,Wunderground v.1.15,2013-05-18 19:15:00,
2013-05-18 15:20:00,71.3,65.9,30.08,ENE,68,0.0,-999.0,83,0.00,,,0.05,Wunderground v.1.15,2013-05-18 19:20:00,
2013-05-18 15:25:00,71.3,65.9,30.08,ENE,68,0.0,-999.0,83,0.00,,,0.05,Wunderground v.1.15,2013-05-18 19:25:00,
2013-05-18 15:30:00,71.3,65.9,30.08,ENE,68,0.0,-999.0,83,0.00,,,0.05,Wunderground v.1.15,2013-05-18 19:30:00,
2013-05-18 15:35:00,71.3,65.9,30.08,ENE,68,0.0,-999.0,83,0.00,,,0.05,Wunderground v.1.15,2013-05-18 19:35:00,
2013-05-18 15:40:00,71.3,65.9,30.08,ENE,68,0.0,-999.0,83,0.00,,,0.05,Wunderground v.1.15,2013-05-18 19:40:00,
2013-05-18 15:45:00,71.6,66.5,30.08,WNW,293,0.0,-999.0,84,0.00,,,0.05,Wunderground v.1.15,2013-05-18 19:45:00,
2013-05-18 15:50:00,71.6,66.5,30.08,WNW,293,0.0,-999.0,84,0.00,,,0.05,Wunderground v.1.15,2013-05-18 19:50:00,
2013-05-18 15:55:00,71.6,66.5,30.08,WNW,293,0.0,-999.0,84,0.00,,,0.05,Wunderground v.1.15,2013-05-18 19:55:00,
2013-05-18 16:00:00,71.6,66.5,30.08,WNW,293,0.0,-999.0,84,0.00,,,0.05,Wunderground v.1.15,2013-05-18 20:00:00,
2013-05-18 16:05:00,71.6,66.5,30.08,WNW,293,0.0,-999.0,84,0.00,,,0.05,Wunderground v.1.15,2013-05-18 20:05:00,
2013-05-18 16:10:00,71.6,66.5,30.08,WNW,293,0.0,-999.0,84,0.00,,,0.05,Wunderground v.1.15,2013-05-18 20:10:00,
2013-05-18 16:15:00,71.1,66.4,30.08,WNW,293,1.0,-999.0,85,0.01,,,0.05,Wunderground v.1.15,2013-05-18 20:15:00,
2013-05-18 16:20:00,71.1,66.4,30.08,WNW,293,1.0,-999.0,85,0.01,,,0.05,Wunderground v.1.15,2013-05-18 20:20:00,
2013-05-18 16:25:00,71.1,66.4,30.08,WNW,293,1.0,-999.0,85,0.01,,,0.05,Wunderground v.1.15,2013-05-18 20:25:00,
2013-05-18 16:30:00,71.1,66.4,30.08,WNW,293,1.0,-999.0,85,0.01,,,0.05,Wunderground v.1.15,2013-05-18 20:30:00,
2013-05-18 16:35:00,71.1,66.4,30.08,WNW,293,1.0,-999.0,85,0.01,,,0.05,Wunderground v.1.15,2013-05-18 20:35:00,
2013-05-18 16:40:00,71.1,66.4,30.08,WNW,293,1.0,-999.0,85,0.01,,,0.05,Wunderground v.1.15,2013-05-18 20:40:00,
2013-05-18 16:45:00,70.9,66.5,30.07,South,180,0.0,-999.0,86,0.01,,,0.05,Wunderground v.1.15,2013-05-18 20:45:00,
2013-05-18 16:50:00,70.9,66.5,30.07,South,180,0.0,-999.0,86,0.01,,,0.05,Wunderground v.1.15,2013-05-18 20:50:00,
2013-05-18 16:55:00,70.9,66.5,30.07,South,180,0.0,-999.0,86,0.01,,,0.05,Wunderground v.1.15,2013-05-18 20:55:00,
2013-05-18 17:00:00,70.9,66.5,30.07,South,180,0.0,-999.0,86,0.01,,,0.05,Wunderground v.1.15,2013-05-18 21:00:00,
2013-05-18 17:05:00,70.9,66.5,30.07,South,180,0.0,-999.0,86,0.01,,,0.05,Wunderground v.1.15,2013-05-18 21:05:00,
2013-05-18 17:10:00,70.9,66.5,30.07,South,180,0.0,-999.0,86,0.01,,,0.05,Wunderground v.1.15,2013-05-18 21:10:00,
2013-05-18 17:15:00,71.4,66.3,30.06,South,180,0.0,-999.0,84,0.00,,,0.05,Wunderground v.1.15,2013-05-18 21:15:00,
2013-05-18 17:20:00,71.4,66.3,30.06,South,180,0.0,-999.0,84,0.00,,,0.05,Wunderground v.1.15,2013-05-18 21:20:00,
2013-05-18 17:25:00,71.4,66.3,30.06,South,180,0.0,-999.0,84,0.00,,,0.05,Wunderground v.1.15,2013-05-18 21:25:00,
2013-05-18 17:30:00,71.4,66.3,30.06,South,180,0.0,-999.0,84,0.00,,,0.05,Wunderground v.1.15,2013-05-18 21:30:00,
2013-05-18 17:35:00,71.4,66.3,30.06,South,180,0.0,-999.0,84,0.00,,,0.05,Wunderground v.1.15,2013-05-18 21:35:00,
2013-05-18 17:40:00,71.4,66.3,30.06,South,180,0.0,-999.0,84,0.00,,,0.05,Wunderground v.1.15,2013-05-18 21:40:00,
2013-05-18 17:45:00,71.7,66.3,30.06,South,180,0.0,-999.0,83,0.00,,,0.05,Wunderground v.1.15,2013-05-18 21:45:00,
2013-05-18 17:50:00,71.7,66.3,30.06,South,180,0.0,-999.0,83,0.00,,,0.05,Wunderground v.1.15,2013-05-18 21:50:00,
2013-05-18 17:55:00,71.7,66.3,30.06,South,180,0.0,-999.0,83,0.00,,,0.05,Wunderground v.1.15,2013-05-18 21:55:00,
2013-05-18 18:00:00,71.7,66.3,30.06,South,180,0.0,-999.0,83,0.00,,,0.05,Wunderground v.1.15,2013-05-18 22:00:00,
2013-05-18 18:05:00,71.7,66.3,30.06,South,180,0.0,-999.0,83,0.00,,,0.05,Wunderground v.1.15,2013-05-18 22:05:00,
2013-05-18 18:10:00,71.7,66.3,30.06,South,180,0.0,-999.0,83,0.00,,,0.05,Wunderground v.1.15,2013-05-18 22:10:00,
2013-05-18 18:15:00,72.2,66.7,30.06,NE,45,0.0,-999.0,83,0.00,,,0.05,Wunderground v.1.15,2013-05-18 22:15:00,
2013-05-18 18:20:00,72.2,66.7,30.06,NE,45,0.0,-999.0,83,0.00,,,0.05,Wunderground v.1.15,2013-05-18 22:20:00,
2013-05-18 18:25:00,72.2,66.7,30.06,NE,45,0.0,-999.0,83,0.00,,,0.05,Wunderground v.1.15,2013-05-18 22:25:00,
2013-05-18 18:30:00,72.2,66.7,30.06,NE,45,0.0,-999.0,83,0.00,,,0.05,Wunderground v.1.15,2013-05-18 22:30:00,
2013-05-18 18:35:00,72.2,66.7,30.06,NE,45,0.0,-999.0,83,0.00,,,0.05,Wunderground v.1.15,2013-05-18 22:35:00,
2013-05-18 18:40:00,72.2,66.7,30.06,NE,45,0.0,-999.0,83,0.00,,,0.05,Wunderground v.1.15,2013-05-18 22:40:00,
2013-05-18 18:45:00,71.3,65.5,30.06,NE,45,1.0,-999.0,82,0.00,,,0.05,Wunderground v.1.15,2013-05-18 22:45:00,
2013-05-18 18:50:00,71.3,65.5,30.06,NE,45,1.0,-999.0,82,0.00,,,0.05,Wunderground v.1.15,2013-05-18 22:50:00,
2013-05-18 18:55:00,71.3,65.5,30.06,NE,45,1.0,-999.0,82,0.00,,,0.05,Wunderground v.1.15,2013-05-18 22:55:00,
2013-05-18 19:00:00,71.3,65.5,30.06,NE,45,1.0,-999.0,82,0.00,,,0.05,Wunderground v.1.15,2013-05-18 23:00:00,
2013-05-18 19:05:00,71.3,65.5,30.06,NE,45,1.0,-999.0,82,0.00,,,0.05,Wunderground v.1.15,2013-05-18 23:05:00,
2013-05-18 19:10:00,71.3,65.5,30.06,NE,45,1.0,-999.0,82,0.00,,,0.05,Wunderground v.1.15,2013-05-18 23:10:00,
2013-05-18 19:15:00,70.6,65.5,30.07,ENE,68,0.0,-999.0,84,0.00,,,0.05,Wunderground v.1.15,2013-05-18 23:15:00,
2013-05-18 19:20:00,70.6,65.5,30.07,ENE,68,0.0,-999.0,84,0.00,,,0.05,Wunderground v.1.15,2013-05-18 23:20:00,
2013-05-18 19:25:00,70.6,65.5,30.07,ENE,68,0.0,-999.0,84,0.00,,,0.05,Wunderground v.1.15,2013-05-18 23:25:00,
2013-05-18 19:30:00,70.6,65.5,30.07,ENE,68,0.0,-999.0,84,0.00,,,0.05,Wunderground v.1.15,2013-05-18 23:30:00,
2013-05-18 19:35:00,70.6,65.5,30.07,ENE,68,0.0,-999.0,84,0.00,,,0.05,Wunderground v.1.15,2013-05-18 23:35:00,
2013-05-18 19:40:00,70.6,65.5,30.07,ENE,68,0.0,-999.0,84,0.00,,,0.05,Wunderground v.1.15,2013-05-18 23:40:00,
2013-05-18 19:45:00,70.0,65.6,30.07,East,90,0.0,-999.0,86,0.00,,,0.05,Wunderground v.1.15,2013-05-18 23:45:00,
2013-05-18 19:50:00,70.0,65.6,30.07,East,90,0.0,-999.0,86,0.00,,,0.05,Wunderground v.1.15,2013-05-18 23:50:00,
2013-05-18 19:55:00,70.0,65.6,30.07,East,90,0.0,-999.0,86,0.00,,,0.05,Wunderground v.1.15,2013-05-18 23:55:00,
2013-05-18 20:00:00,70.0,65.6,30.07,East,90,0.0,-999.0,86,0.00,,,0.05,Wunderground v.1.15,2013-05-19 00:00:00,
2013-05-18 20:05:00,70.0,65.6,30.07,East,90,0.0,-999.0,86,0.00,,,0.05,Wunderground v.1.15,2013-05-19 00:05:00,
2013-05-18 20:10:00,70.0,65.6,30.07,East,90,0.0,-999.0,86,0.00,,,0.05,Wunderground v.1.15,2013-05-19 00:10:00,
2013-05-18 20:15:00,69.6,65.2,30.07,ENE,68,0.0,-999.0,86,0.00,,,0.05,Wunderground v.1.15,2013-05-19 00:15:00,
2013-05-18 20:20:00,69.6,65.2,30.07,ENE,68,0.0,-999.0,86,0.00,,,0.05,Wunderground v.1.15,2013-05-19 00:20:00,
2013-05-18 20:25:00,69.6,65.2,30.07,ENE,68,0.0,-999.0,86,0.00,,,0.05,Wunderground v.1.15,2013-05-19 00:25:00,
2013-05-18 20:30:00,69.6,65.2,30.07,ENE,68,0.0,-999.0,86,0.00,,,0.05,Wunderground v.1.15,2013-05-19 00:30:00,
2013-05-18 20:35:00,69.6,65.2,30.07,ENE,68,0.0,-999.0,86,0.00,,,0.05,Wunderground v.1.15,2013-05-19 00:35:00,
2013-05-18 20:40:00,69.6,65.2,30.07,ENE,68,0.0,-999.0,86,0.00,,,0.05,Wunderground v.1.15,2013-05-19 00:40:00,
2013-05-18 20:45:00,69.4,65.7,30.08,NE,45,0.0,-999.0,88,0.00,,,0.05,Wunderground v.1.15,2013-05-19 00:45:00,
2013-05-18 20:50:00,69.4,65.7,30.08,NE,45,0.0,-999.0,88,0.00,,,0.05,Wunderground v.1.15,2013-05-19 00:50:00,
2013-05-18 20:55:00,69.4,65.7,30.08,NE,45,0.0,-999.0,88,0.00,,,0.05,Wunderground v.1.15,2013-05-19 00:55:00,
2013-05-18 21:00:00,69.4,65.7,30.08,NE,45,0.0,-999.0,88,0.00,,,0.05,Wunderground v.1.15,2013-05-19 01:00:00,
2013-05-18 21:05:00,69.4,65.7,30.08,NE,45,0.0,-999.0,88,0.00,,,0.05,Wunderground v.1.15,2013-05-19 01:05:00,
2013-05-18 21:10:00,69.4,65.7,30.08,NE,45,0.0,-999.0,88,0.00,,,0.05,Wunderground v.1.15,2013-05-19 01:10:00,
2013-05-18 21:15:00,69.3,65.9,30.08,East,90,0.0,-999.0,89,0.00,,,0.05,Wunderground v.1.15,2013-05-19 01:15:00,
2013-05-18 21:20:00,69.3,65.9,30.08,East,90,0.0,-999.0,89,0.00,,,0.05,Wunderground v.1.15,2013-05-19 01:20:00,
2013-05-18 21:25:00,69.3,65.9,30.08,East,90,0.0,-999.0,89,0.00,,,0.05,Wunderground v.1.15,2013-05-19 01:25:00,
2013-05-18 21:30:00,69.3,65.9,30.08,East,90,0.0,-999.0,89,0.00,,,0.05,Wunderground v.1.15,2013-05-19 01:30:00,
2013-05-18 21:35:00,69.3,65.9,30.08,East,90,0.0,-999.0,89,0.00,,,0.05,Wunderground v.1.15,2013-05-19 01:35:00,
2013-05-18 21:40:00,69.3,65.9,30.08,East,90,0.0,-999.0,89,0.00,,,0.05,Wunderground v.1.15,2013-05-19 01:40:00,
2013-05-18 21:45:00,69.0,65.6,30.08,East,90,0.0,-999.0,89,0.00,,,0.05,Wunderground v.1.15,2013-05-19 01:45:00,
2013-05-18 21:50:00,69.0,65.6,30.08,East,90,0.0,-999.0,89,0.00,,,0.05,Wunderground v.1.15,2013-05-19 01:50:00,
2013-05-18 21:55:00,69.0,65.6,30.08,East,90,0.0,-999.0,89,0.00,,,0.05,Wunderground v.1.15,2013-05-19 01:55:00,
2013-05-18 22:00:00,69.0,65.6,30.08,East,90,0.0,-999.0,89,0.00,,,0.05,Wunderground v.1.15,2013-05-19 02:00:00,
2013-05-18 22:05:00,69.0,65.6,30.08,East,90,0.0,-999.0,89,0.00,,,0.05,Wunderground v.1.15,2013-05-19 02:05:00,
2013-05-18 22:10:00,69.0,65.6,30.08,East,90,0.0,-999.0,89,0.00,,,0.05,Wunderground v.1.15,2013-05-19 02:10:00,
2013-05-18 22:15:00,68.7,65.3,30.08,ESE,113,0.0,-999.0,89,0.00,,,0.05,Wunderground v.1.15,2013-05-19 02:15:00,
2013-05-18 22:20:00,68.7,65.3,30.08,ESE,113,0.0,-999.0,89,0.00,,,0.05,Wunderground v.1.15,2013-05-19 02:20:00,
2013-05-18 22:25:00,68.7,65.3,30.08,ESE,113,0.0,-999.0,89,0.00,,,0.05,Wunderground v.1.15,2013-05-19 02:25:00,
2013-05-18 22:30:00,68.7,65.3,30.08,ESE,113,0.0,-999.0,89,0.00,,,0.05,Wunderground v.1.15,2013-05-19 02:30:00,
2013-05-18 22:35:00,68.7,65.3,30.08,ESE,113,0.0,-999.0,89,0.00,,,0.05,Wunderground v.1.15,2013-05-19 02:35:00,
2013-05-18 22:40:00,68.7,65.3,30.08,ESE,113,0.0,-999.0,89,0.00,,,0.05,Wunderground v.1.15,2013-05-19 02:40:00,
2013-05-18 22:45:00,68.5,65.4,30.08,East,90,1.0,-999.0,90,0.00,,,0.05,Wunderground v.1.15,2013-05-19 02:45:00,
2013-05-18 22:50:00,68.5,65.4,30.08,East,90,1.0,-999.0,90,0.00,,,0.05,Wunderground v.1.15,2013-05-19 02:50:00,
2013-05-18 22:55:00,68.5,65.4,30.08,East,90,1.0,-999.0,90,0.00,,,0.05,Wunderground v.1.15,2013-05-19 02:55:00,
2013-05-18 23:00:00,68.5,65.4,30.08,East,90,1.0,-999.0,90,0.00,,,0.05,Wunderground v.1.15,2013-05-19 03:00:00,
2013-05-18 23:05:00,68.5,65.4,30.08,East,90,1.0,-999.0,90,0.00,,,0.05,Wunderground v.1.15,2013-05-19 03:05:00,
2013-05-18 23:10:00,68.5,65.4,30.08,East,90,1.0,-999.0,90,0.00,,,0.05,Wunderground v.1.15,2013-05-19 03:10:00,
2013-05-18 23:15:00,68.1,65.1,30.08,East,90,1.0,-999.0,90,0.00,,,0.05,Wunderground v.1.15,2013-05-19 03:15:00,
2013-05-18 23:20:00,68.1,65.1,30.08,East,90,1.0,-999.0,90,0.00,,,0.05,Wunderground v.1.15,2013-05-19 03:20:00,
2013-05-18 23:25:00,68.1,65.1,30.08,East,90,1.0,-999.0,90,0.00,,,0.05,Wunderground v.1.15,2013-05-19 03:25:00,
2013-05-18 23:30:00,68.1,65.1,30.08,East,90,1.0,-999.0,90,0.00,,,0.05,Wunderground v.1.15,2013-05-19 03:30:00,
2013-05-18 23:35:00,68.1,65.1,30.08,East,90,1.0,-999.0,90,0.00,,,0.05,Wunderground v.1.15,2013-05-19 03:35:00,
2013-05-18 23:40:00,68.1,65.1,30.08,East,90,1.0,-999.0,90,0.00,,,0.05,Wunderground v.1.15,2013-05-19 03:40:00,
2013-05-18 23:45:00,67.5,64.8,30.08,NE,45,0.0,-999.0,91,0.00,,,0.05,Wunderground v.1.15,2013-05-19 03:45:00,
2013-05-18 23:50:00,67.5,64.8,30.08,NE,45,0.0,-999.0,91,0.00,,,0.05,Wunderground v.1.15,2013-05-19 03:50:00,
2013-05-18 23:55:00,67.5,64.8,30.08,NE,45,0.0,-999.0,91,0.00,,,0.05,Wunderground v.1.15,2013-05-19 03:55:00,